Terminal Aerodrome Forecast
Issued by NWS Springfield, MO

Home | Current Version | Previous Version | Text Only | Print | Product List | Glossary On
Versions: 1 2 3 4 5 6 7 8 9 10 11 12 13 14 15 16 17 18 19 20 21 22 23 24 25 26 27 28 29 30 31 32 33 34 35 36 37 38
000
FTUS43 KSGF 291136
TAFSGF
TAF
KSGF 291136Z 2912/3012 09011KT P6SM +TSRA OVC010CB
     FM291400 12012G21KT P6SM +TSRA OVC015CB
     FM291500 13012G21KT 6SM +SHRA OVC010
      TEMPO 2915/2917 4SM TS OVC003CB
     FM291700 15012KT 3SM +SHRA OVC025
      TEMPO 2917/2919 1SM TS OVC015CB
     FM291900 16013KT 3SM +SHRA OVC045
      TEMPO 2919/2921 2SM TS OVC025CB
     FM292100 16014G23KT 5SM +SHRA VCTS OVC030CB
     FM301000 15010KT P6SM SHRA VCTS OVC015CB=

USA.gov is the U.S. government's official web portal to all federal, state and local government web resources and services.